Regional Weather Roundup
Issued by NWS

Home | Current Version | Previous Version | Text Only | Print | Product List | Glossary On
Versions: 1 2 3 4 5 6 7 8 9 10 11 12 13 14 15 16 17 18 19 20 21 22 23 24 25 26 27 28 29 30 31 32 33 34 35 36 37 38 39 40 41 42 43 44 45 46 47 48 49 50
000
ASHW40 PHFO 241112
RWRHI

WEATHER ROUNDUP FOR HAWAII
NATIONAL WEATHER SERVICE HONOLULU HI
100 AM HST SUN SEP 24 2017

THIS IS AN AUTOMATED REPORT THAT HAS NOT BEEN QUALITY CONTROLLED.

NOTE..."FAIR" INDICATES FEW OR NO CLOUDS BELOW 12,000 FEET WITH NO
SIGNIFICANT WEATHER AND/OR OBSTRUCTIONS TO VISIBILITY.

* - THESE SITES REPORT LIMITED FIELDS
# - BUOY DATA PROVIDED BY PACIFIC ISLANDS OCEAN OBSERVING SYSTEM.

HIZ001>004-241200-
KAUAI-NIIHAU-

CITY           SKY/WX    TMP DP  RH WIND       PRES   REMARKS
LIHUE APT      PTCLDY    79  69  71 NE13      30.02F
PORT ALLEN*      N/A     72 N/A N/A NE2         N/A
POIPU*           N/A     77 N/A N/A NE7G15      N/A
PRINCEVILLE*     N/A     73 N/A N/A S2          N/A
KOKOLE POINT*  NOT AVBL
MOLOAA DAIRY*    N/A     75  68  78 E2          N/A
WAIMEA HTS*    NOT AVBL
PUU OPAE*      NOT AVBL
PUU LUA*       NOT AVBL
MAKAHA RIDGE*  NOT AVBL
$$

HIZ005>011-241200-
OAHU-

CITY           SKY/WX    TMP DP  RH WIND       PRES   REMARKS
HONOLULU       PTCLDY    78  66  66 VRB5      29.99F
KALAELOA       CLEAR     74  64  71 E5        30.01S
KANEOHE MCB    NOT AVBL
WHEELER FIELD  FAIR      70  66  88 CALM      30.00F
BELLOWS*       NOT AVBL
KAHUKU*        NOT AVBL
WHEELER*       NOT AVBL
WAIANAE HARBOR NOT AVBL
DILLINGHAM*      N/A     88  81  79 NW1G7       N/A  HX 105
KAHUKU TRN*      N/A     86  81  84 W5G12       N/A  HX 102
KAWAILOA*        N/A     72  68  88 E6G14       N/A
KII*             N/A     79  70  73 E12         N/A
MAKUA RANGE*     N/A     75  66  73 W3G10       N/A
OAHU FOREST NW NOT AVBL
SCHOFIELD BRK*   N/A     70  68  94 MISG        N/A
SCHOFIELD S*   NOT AVBL
WAIANAE VLY*   NOT AVBL
KUAOKALA*      NOT AVBL
HONOULIUULI*   NOT AVBL
MOKUOLOE IS*   NOT AVBL
PALEHUA*       NOT AVBL
WAIAWA PHB*    NOT AVBL
$$

HIZ012>013-241200-
MOLOKAI-

CITY           SKY/WX    TMP DP  RH WIND       PRES   REMARKS
MOLOKAI AIRPT  CLEAR     74  67  78 E3        30.01F
KALAUPAPA      NOT AVBL
MAKAPULAPAI*   NOT AVBL
MOLOKAI 1*     NOT AVBL
PUU ALII*      NOT AVBL
$$

HIZ016-241200-
KAHOOLAWE-

CITY           SKY/WX    TMP DP  RH WIND       PRES   REMARKS
KAHOOLAWE*     NOT AVBL
HAKIOAWA*      NOT AVBL
HONOKANAIA*      N/A     78  68  70 VRB12G25  29.93F
KANELOA*         N/A     72  66  83 N6G21     30.07F
KEALIALALO*    NOT AVBL
LUA MAKIKA*    NOT AVBL
$$

HIZ014>015-241200-
LANAI-

CITY           SKY/WX    TMP DP  RH WIND       PRES   REMARKS
LANAI CITY     FAIR      70  65  84 NE8       30.05F
LANAI 1*       NOT AVBL
$$

HIZ017>028-241200-
MAUI-

CITY           SKY/WX    TMP DP  RH WIND       PRES   REMARKS
KAHULUI        CLEAR     75  68  78 N7        29.99F
KAPALUA-W MAUI NOT AVBL
HANA AIRPORT   NOT AVBL
HANA*          NOT AVBL
HALEAKALA SUMM   N/A     45   9  23 N12         N/A
MAALAEA BAY*   NOT AVBL
HALEAKALA*     NOT AVBL
KAUPO GAP*     NOT AVBL
KULA 1*          N/A     48  32  53 E3          N/A
$$

HIZ023>026-241200-
BIG ISLAND OF HAWAII COAST AND LOWER SLOPES-

CITY           SKY/WX    TMP DP  RH WIND       PRES   REMARKS
KAILUA KONA    CLOUDY    74  69  85 SE7       29.97S
HILO           CLOUDY    71  68  90 SW6       30.00F
HONOKAA*         N/A     66 N/A N/A VRB1        N/A
KAWAIHAE MWT*    N/A     77 N/A N/A NE5         N/A
KAWAIHAE*      NOT AVBL
SOUTH POINT*     N/A     72 N/A N/A NW8         N/A
UPOLU AIRPORT* NOT AVBL
KAMUELA*       NOT AVBL
HAKALAU*         N/A     45  43  93 SW1         N/A
KALOKO-HONOKO* NOT AVBL
PALI 2*          N/A     64  57  77 S10G18      N/A
KEALAKOMO*       N/A     77  63  61 N17G26      N/A
KAUPULEHU*     NOT AVBL
KAPAPALA*        N/A     64  64 100 NW5         N/A
LOWER KAHUKU*  NOT AVBL
PUHE CS*       NOT AVBL
PUHO CS*       NOT AVBL
PTA KEAMUKU*     N/A     63  55  77 E8          N/A
WAIKOLOA*      NOT AVBL
$$

HIZ027>028-241200-
BIG ISLAND OF HAWAII INTERIOR AND SUMMMITS-

CITY           SKY/WX    TMP DP  RH WIND       PRES   REMARKS
BRADSHAW FIELD CLOUDY    50  41  71 SE5       30.31F
MK VISITOR CEN   N/A     43  21  42 N5          N/A
MAUNA KEA*       N/A     36 -17  10 W2          N/A
MAUNA LOA*       N/A    N/A N/A N/A MISG        N/A
MAUNA LOA 1*   NOT AVBL
PTA KIPUKA*      N/A     54  50  87 W5          N/A
PTA RANGE 17*    N/A     54  46  76 W5          N/A
PTA WEST*        N/A     55  52  88 SE7         N/A
NENE CABIN*    NOT AVBL
AHUMOA*        NOT AVBL
PTA PORTABLE*  NOT AVBL
PUU MALI*        N/A     50  45  81 S5          N/A
$$

HIC003-241200-
NORTHWEST ISLANDS-

CITY           SKY/WX    TMP DP  RH WIND       PRES   REMARKS
MIDWAY ISLAND  PTCLDY    77  75  94 W5        30.00F
MIDWAY NOS*    NOT AVBL
FRENCH FRIGATE NOT AVBL
$$

PHZ110>124-180-241200-
BUOY REPORTS

STATION/POSITION TIME  TEMP    WIND        PRES    WAVE   SWELL
                       AIR SEA DIR/SP/G            HT/PER HT/DIR
                 (UTC) (F)     (DEG/KT/KT) (MB)    (FT/S) (FT/D)
BUOY 51001       1050   80 82   80/ 10/ 12 1017.1F   5/ 9   5/ 60
BUOY 51101       1050   80 81   80/ 10/ 14 1017.6F   5/ 8   5/ 60
BUOY 51100       NOT AVBL
BUOY 51002       1050   80 81   70/ 12/ 14 1013.8F   6/11   5/350
BUOY 51003       1050   80 82   30/ 12/ 14 1014.7F   5/11   5/160
BUOY 51004       1050      80   60/ 10/ 12 1014.2F   4/ 8   3/ 50
WAIMEA BAY#      1032      80                N/A     4/ 8   2/310
MOKAPU POINT#    1034      81                N/A     4/ 8   2/ 80
LANAI#           NOT AVBL
BARBERS PT 2#    NOT AVBL
PAUWELA#         1009      80                N/A     4/10   2/340
HILO#            1057      80                N/A     4/ 8   2/110
KANEOHE BAY#     NOT AVBL
KANEOHE BAY 2#   NOT AVBL
HANALEI#         1052      81                N/A     4/11   2/310
KAHULUI HARBOR   1048   77 81  310/  6/  8 1015.7F
HONOLULU HARBOR  1048   78 81   50/  2/  3 1016.5F
PEARL HARBOR#    1030      81                N/A     2/13   2/160
KILO NALU        NOT AVBL
HILO HARBOR      1048   72 80  220/  5/  7 1015.5F
MOKUOLOE         1036   79 82   70/  7/  9 1016.1F
NAWILIWILI       1048   78      30/  7/ 10 1016.3F
WHOTS BUOY       NOT AVBL
BUOY 51028       NOT AVBL
$$

......................KEY........................................
  SKY/WX - SKY CONDITIONS/PRESENT WEATHER
  TMP    - TEMPERATURE IN FAHRENHEIT
  DWPT   - DEWPOINT IN FAHRENHEIT
  RH     - RELATIVE HUMIDITY IN PERCENT
  WIND   - DIRECTION AND SPEED /MPH FOR ISLANDS...KTS FOR BUOYS/
  PRES   - MEAN SEA LEVEL PRESSURE IN INCHES OF HG
  VSB    - VISIBILITY IN MILES
  HX     - HEAT INDEX
  WCI    - WIND CHILL INDEX
  VRB    - VARIABLE WIND DIRECTION
  N/A    - NOT AVAILABLE



USA.gov is the U.S. government's official web portal to all federal, state and local government web resources and services.